TimeEST,TemperatureF,Dew PointF,Humidity,Sea Level PressureIn,VisibilityMPH,Wind Direction,Wind SpeedMPH,Gust SpeedMPH,PrecipitationIn,Events,Conditions,WindDirDegrees,DateUTC
12:54 AM,32.0,26.1,79,30.26,10.0,West,4.6,-,N/A,,Overcast,280,2013-03-07 05:54:00
1:54 AM,32.0,27.0,82,30.27,10.0,WNW,6.9,-,N/A,,Overcast,290,2013-03-07 06:54:00
2:36 AM,30.2,28.4,93,30.23,10.0,West,8.1,-,N/A,,Overcast,280,2013-03-07 07:36:00
2:54 AM,30.9,28.0,89,30.27,10.0,WNW,5.8,-,N/A,,Overcast,290,2013-03-07 07:54:00
3:54 AM,30.9,28.9,92,30.28,8.0,WNW,4.6,-,N/A,,Overcast,290,2013-03-07 08:54:00
4:54 AM,30.9,28.9,92,30.30,8.0,WNW,8.1,-,N/A,,Overcast,290,2013-03-07 09:54:00
5:54 AM,32.0,28.9,88,30.31,10.0,WNW,6.9,-,N/A,,Overcast,300,2013-03-07 10:54:00
6:54 AM,32.0,30.0,92,30.32,10.0,West,5.8,-,N/A,,Overcast,280,2013-03-07 11:54:00
7:10 AM,32.0,30.2,93,30.30,10.0,WNW,5.8,-,N/A,,Overcast,300,2013-03-07 12:10:00
7:54 AM,32.0,30.0,92,30.34,10.0,WNW,4.6,-,N/A,,Overcast,290,2013-03-07 12:54:00
8:42 AM,33.8,30.2,87,30.33,10.0,NW,6.9,-,N/A,,Overcast,320,2013-03-07 13:42:00
8:54 AM,33.1,30.0,89,30.36,10.0,NW,6.9,-,N/A,,Overcast,310,2013-03-07 13:54:00
9:10 AM,33.8,28.4,81,30.33,10.0,NW,6.9,-,N/A,,Overcast,310,2013-03-07 14:10:00
9:32 AM,33.8,30.2,87,30.34,10.0,NW,8.1,-,N/A,,Overcast,310,2013-03-07 14:32:00
9:54 AM,34.0,28.9,82,30.37,10.0,NW,8.1,-,N/A,,Overcast,310,2013-03-07 14:54:00
10:54 AM,36.0,28.9,76,30.38,10.0,NW,8.1,-,N/A,,Overcast,310,2013-03-07 15:54:00
11:54 AM,37.0,27.0,67,30.38,10.0,NW,8.1,-,N/A,,Overcast,310,2013-03-07 16:54:00
12:54 PM,37.0,24.1,59,30.38,10.0,NW,8.1,-,N/A,,Overcast,320,2013-03-07 17:54:00
1:54 PM,37.0,23.0,57,30.36,10.0,WNW,8.1,-,N/A,,Overcast,300,2013-03-07 18:54:00
2:54 PM,36.0,21.0,55,30.36,10.0,NNW,5.8,-,N/A,,Mostly Cloudy,340,2013-03-07 19:54:00
3:54 PM,36.0,21.9,57,30.37,10.0,NW,6.9,-,N/A,,Scattered Clouds,320,2013-03-07 20:54:00
4:54 PM,36.0,23.0,59,30.38,10.0,NNW,11.5,-,N/A,,Mostly Cloudy,340,2013-03-07 21:54:00
5:54 PM,36.0,23.0,59,30.39,10.0,NW,5.8,-,N/A,,Overcast,310,2013-03-07 22:54:00
6:54 PM,35.1,23.0,61,30.40,10.0,NNW,6.9,-,N/A,,Overcast,340,2013-03-07 23:54:00
7:54 PM,35.1,24.1,64,30.40,10.0,NW,3.5,-,N/A,,Overcast,320,2013-03-08 00:54:00
8:54 PM,34.0,23.0,64,30.41,10.0,Calm,Calm,-,N/A,,Overcast,0,2013-03-08 01:54:00
9:54 PM,33.1,25.0,72,30.41,10.0,NW,4.6,-,N/A,,Overcast,320,2013-03-08 02:54:00
10:54 PM,33.1,26.1,75,30.41,10.0,Calm,Calm,-,N/A,,Overcast,0,2013-03-08 03:54:00
11:54 PM,32.0,25.0,75,30.42,10.0,NNW,4.6,-,N/A,,Mostly Cloudy,330,2013-03-08 04:54:00